Mitchell, SD

9:33 PM CST on February 22, 2018 (GMT -0600)
Mitchell Municipal

Weather History for KMHE - May, 2013

Change the Weather History Date:

Thursday, May 9, 2013

  Actual Average Record
Temperature  
Mean Temperature 59 °F 57 °F  
Max Temperature 70 °F 70 °F 97 °F (1928)
Min Temperature 47 °F 45 °F 22 °F (1966)
Degree Days  
Heating Degree Days 6 8  
Month to date heating degree days 144 86  
Since 1 July heating degree days 7508 7086  
Cooling Degree Days 0 1  
Month to date cooling degree days 0 6  
Year to date cooling degree days 0 8  
Growing Degree Days 7 (Base 50)    
Moisture  
Dew Point 50 °F    
Average Humidity 73    
Maximum Humidity 93    
Minimum Humidity 53    
Precipitation  
Precipitation 0.01 in 0.07 in 1.77 in (1995)
Month to date precipitation 1.19 0.73  
Year to date precipitation 6.22 4.53  
Snow  
Snow 0.00 in - T in (1933)
Month to date snowfall 0.0  
Since 1 July snowfall 54.5  
Snow Depth 0.00 in    
Sea Level Pressure  
Sea Level Pressure 30.04 in    
Wind  
Wind Speed 10 mph (North)    
Max Wind Speed 18 mph    
Max Gust Speed 23 mph    
Visibility 9 miles    
Events Rain    
T = Trace of Precipitation, MM = Missing Value Source: NWS Daily Summary

Daily Weather History Graph

Daily Weather History Graph

Search for Another Location

Airport or City:

Trip Planner

Search our weather history database for the weather conditions in past years. The results will help you decide how hot, cold, wet, or windy it might be!

Date:

Astronomy

May. 09, 2013 Rise Set
Actual Time 6:13 AM CDT 8:44 PM CDT
Civil Twilight 5:40 AM CDT 9:17 PM CDT
Nautical Twilight 5:00 AM CDT 9:57 PM CDT
Astronomical Twilight 4:14 AM CDT 10:44 PM CDT
Moon 5:59 AM CDT (5/9) 8:40 PM CDT (5/9)
Length of Visible Light 15h 36m
Length of Day
14h 31m
Waning Crescent, 0% of the Moon is Illuminated
May 9
Waning Crescent
May 9
New
May 17
First Quarter
May 24
Full
May 31
Last Quarter

Hourly Weather History & Observations

Time (CDT) Temp. Windchill Dew Point Humidity Pressure Visibility Wind Dir Wind Speed Gust Speed Precip Events Conditions
12:53 AM 57.0 °F - 54.0 °F 89% 30.00 in 9.0 mi NE 8.1 mph - N/A   Overcast
1:53 AM 57.0 °F - 54.0 °F 89% 30.00 in 9.0 mi NE 8.1 mph - N/A   Mostly Cloudy
2:53 AM 57.0 °F - 54.0 °F 89% 29.99 in 9.0 mi NNE 9.2 mph - N/A   Overcast
3:33 AM 55.4 °F - 53.6 °F 94% 29.99 in 8.0 mi North 10.4 mph - N/A   Overcast
3:53 AM 55.9 °F - 54.0 °F 93% 29.99 in 8.0 mi NNE 8.1 mph - N/A   Overcast
4:42 AM 55.4 °F - 53.6 °F 94% 30.00 in 6.0 mi North 10.4 mph - N/A   Overcast
4:53 AM 55.9 °F - 53.1 °F 90% 30.00 in 6.0 mi North 12.7 mph - N/A   Overcast
5:00 AM 55.4 °F - 53.6 °F 94% 30.00 in 6.0 mi North 12.7 mph - N/A   Overcast
5:38 AM 55.4 °F - 53.6 °F 94% 30.00 in 6.0 mi North 13.8 mph - N/A   Overcast
5:45 AM 55.4 °F - 53.6 °F 94% 30.00 in 6.0 mi North 13.8 mph - N/A   Overcast
5:53 AM 55.0 °F - 52.0 °F 89% 30.00 in 6.0 mi North 13.8 mph - N/A   Overcast
6:33 AM 53.6 °F - 51.8 °F 94% 30.01 in 7.0 mi North 11.5 mph - N/A   Overcast
7:03 AM 53.6 °F - 51.8 °F 94% 30.03 in 8.0 mi NNW 13.8 mph - N/A   Overcast
7:24 AM 51.8 °F - 48.2 °F 88% 30.04 in 10.0 mi NNW 11.5 mph - N/A   Overcast
7:53 AM 48.9 °F - 45.0 °F 86% 30.06 in 10.0 mi NNW 12.7 mph - 0.00 in Rain Light Rain
8:01 AM 48.2 °F - 44.6 °F 87% 30.06 in 10.0 mi NNW 13.8 mph - 0.00 in Rain Light Rain
8:20 AM 48.2 °F - 44.6 °F 87% 30.06 in 10.0 mi NW 13.8 mph - 0.00 in   Overcast
8:53 AM 46.9 °F - 43.0 °F 86% 30.07 in 10.0 mi NNW 16.1 mph - 0.00 in   Overcast
9:38 AM 46.4 °F 40.7 °F 42.8 °F 87% 30.08 in 10.0 mi NNW 12.7 mph - 0.00 in   Overcast
9:53 AM 46.9 °F - 43.0 °F 86% 30.10 in 10.0 mi NNW 12.7 mph - 0.00 in Rain Light Rain
10:53 AM 48.0 °F - 46.0 °F 93% 30.10 in 8.0 mi NNW 10.4 mph - 0.00 in Rain Light Rain
11:18 AM 50.0 °F - 46.4 °F 87% 30.09 in 7.0 mi NNW 15.0 mph - 0.00 in Rain Light Rain
12:53 PM 60.1 °F - 52.0 °F 75% 30.07 in 10.0 mi North 17.3 mph - 0.00 in   Mostly Cloudy
1:27 PM 62.6 °F - 51.8 °F 68% 30.07 in 10.0 mi NNE 15.0 mph - N/A   Overcast
1:53 PM 66.0 °F - 51.1 °F 59% 30.06 in 10.0 mi NNE 16.1 mph - N/A   Mostly Cloudy
2:53 PM 68.0 °F - 50.0 °F 52% 30.06 in 10.0 mi NE 13.8 mph - N/A   Mostly Cloudy
3:53 PM 68.0 °F - 50.0 °F 52% 30.05 in 10.0 mi NE 8.1 mph - N/A   Mostly Cloudy
4:53 PM 66.9 °F - 50.0 °F 54% 30.04 in 10.0 mi NE 9.2 mph - N/A   Scattered Clouds
5:53 PM 66.0 °F - 53.1 °F 63% 30.03 in 10.0 mi ENE 8.1 mph - 0.01 in   Partly Cloudy
6:53 PM 66.9 °F - 52.0 °F 59% 30.03 in 10.0 mi ENE 6.9 mph - N/A   Scattered Clouds
7:53 PM 63.0 °F - 54.0 °F 72% 30.04 in 10.0 mi ESE 3.5 mph - N/A   Scattered Clouds
9:53 PM 59.0 °F - 52.0 °F 78% 30.08 in 10.0 mi Calm Calm - N/A   Mostly Cloudy
10:53 PM 55.0 °F - 51.1 °F 86% 30.11 in 10.0 mi East 6.9 mph - N/A   Scattered Clouds